TimeCST,TemperatureF,Dew PointF,Humidity,Sea Level PressureIn,VisibilityMPH,Wind Direction,Wind SpeedMPH,Gust SpeedMPH,PrecipitationIn,Events,Conditions,WindDirDegrees,DateUTC
12:53 AM,24.1,15.1,69,30.31,10.0,WSW,6.9,-,N/A,,Clear,250,2012-11-28 06:53:00
1:53 AM,25.0,16.0,69,30.32,10.0,West,8.1,-,N/A,,Clear,260,2012-11-28 07:53:00
2:53 AM,23.0,15.1,72,30.34,10.0,West,6.9,-,N/A,,Clear,280,2012-11-28 08:53:00
3:53 AM,21.0,14.0,74,30.35,10.0,West,5.8,-,N/A,,Clear,280,2012-11-28 09:53:00
4:53 AM,19.9,14.0,78,30.37,10.0,WNW,5.8,-,N/A,,Clear,300,2012-11-28 10:53:00
5:53 AM,21.0,15.1,78,30.38,10.0,West,3.5,-,N/A,,Clear,280,2012-11-28 11:53:00
6:53 AM,21.0,16.0,81,30.40,10.0,WNW,4.6,-,N/A,,Clear,290,2012-11-28 12:53:00
7:53 AM,21.9,17.1,82,30.41,10.0,WNW,5.8,-,N/A,,Clear,300,2012-11-28 13:53:00
8:53 AM,28.0,21.0,75,30.43,10.0,WNW,3.5,-,N/A,,Clear,290,2012-11-28 14:53:00
9:53 AM,32.0,23.0,69,30.44,10.0,Calm,Calm,-,N/A,,Clear,0,2012-11-28 15:53:00
10:53 AM,39.0,24.1,55,30.43,-9999.0,Variable,3.5,-,N/A,,Unknown,0,2012-11-28 16:53:00
11:53 AM,41.0,25.0,53,30.40,10.0,North,-9999.0,-,N/A,,Clear,0,2012-11-28 17:53:00
12:53 PM,44.1,25.0,47,30.36,10.0,Calm,Calm,-,N/A,,Clear,0,2012-11-28 18:53:00
1:53 PM,45.0,24.1,44,30.34,10.0,SSE,10.4,-,N/A,,Clear,160,2012-11-28 19:53:00
2:53 PM,46.0,24.1,42,30.31,10.0,South,5.8,-,N/A,,Clear,180,2012-11-28 20:53:00
3:53 PM,45.0,23.0,42,30.29,10.0,South,8.1,-,N/A,,Clear,190,2012-11-28 21:53:00
4:53 PM,37.0,21.9,54,30.28,10.0,SSE,6.9,-,N/A,,Clear,150,2012-11-28 22:53:00
5:53 PM,32.0,21.9,66,30.28,10.0,SSE,6.9,-,N/A,,Clear,160,2012-11-28 23:53:00
6:53 PM,28.9,21.0,72,30.28,10.0,South,6.9,-,N/A,,Clear,170,2012-11-29 00:53:00
7:53 PM,35.1,25.0,67,30.26,10.0,South,9.2,-,N/A,,Clear,180,2012-11-29 01:53:00
8:53 PM,30.9,24.1,76,30.25,10.0,South,9.2,-,N/A,,Clear,180,2012-11-29 02:53:00
9:53 PM,33.1,25.0,72,30.22,10.0,South,9.2,-,N/A,,Clear,170,2012-11-29 03:53:00
10:53 PM,32.0,25.0,75,30.22,10.0,South,6.9,-,N/A,,Clear,170,2012-11-29 04:53:00
11:53 PM,30.9,25.0,79,30.21,10.0,SSE,8.1,-,N/A,,Clear,160,2012-11-29 05:53:00